Location: Madden
(51.3728°N, 114.3297°W)
Time: 07:12:12
(UTC+00:00)

SPROUT - Visible Passes

Search period start: 06 December 2023 00:00
Search period end: 16 December 2023 00:00
Orbit: 522 x 528 km, 98.0° (Epoch: 05 December)

Date Brightness Start Highest point End Pass type
(mag) Time Alt. Az. Time Alt. Az. Time Alt. Az.
08 Dec ? 00:23:56 10° NNW 00:25:38 13° WNW 00:27:21 10° W visible
09 Dec ? 00:11:16 10° NNW 00:13:40 16° WNW 00:16:02 10° W visible
15 Dec ? 00:32:09 10° NW 00:33:22 11° NW 00:34:36 10° WNW visible
